Theta_e
310 311 311 310 310 310 311 311 312 312 312 313 312 311 311 311 311 312 312 314 313 314 313 315 315 315 316 316 318 319 314 316 321 347 345 342 343 343 340 340 341 346 342 343 345
310 311 311 311 310 310 310 311 311 312 313 313 313 312 311 311 312 313 315 314 313 315 316 315 315 315 316 318 319 316 313 334 343 345 345 347 343 340 340 337 342 343 340 343 348
310 310 311 311 311 310 310 311 311 312 313 313 313 311 311 311 312 317 320 317 314 315 316 315 314 315 316 316 318 316 315 342 346 346 343 339 343 345 340 343 343 338 338 339 342
310 310 310 311 311 311 310 310 311 312 312 313 313 311 310 311 315 323 321 318 316 316 315 314 314 316 315 315 317 317 319 347 345 344 342 345 345 341 341 337 337 337 338 339 340
310 310 310 311 311 311 310 310 311 312 312 313 313 311 310 312 313 320 319 317 316 315 314 314 315 317 315 315 317 316 327 347 346 344 344 341 337 333 330 331 334 335 337 335 335
310 310 310 311 311 311 310 311 312 312 312 314 312 310 310 313 318 321 320 320 318 315 314 314 317 317 317 316 316 318 340 343 343 339 336 335 334 333 327 329 329 332 330 330 331
309 310 311 311 311 310 310 312 312 312 313 313 310 310 310 313 320 321 323 323 319 319 315 315 317 316 317 315 318 327 335 334 335 335 334 333 330 329 327 330 325 325 324 324 324
309 310 311 311 311 310 311 312 312 312 313 311 310 310 311 317 318 320 322 323 320 318 317 317 318 318 317 318 317 316 329 332 333 333 332 330 332 327 326 328 323 323 322 322 322
309 310 311 311 310 311 312 312 312 313 311 310 310 315 317 317 319 319 321 321 321 319 318 318 319 319 319 315 312 314 317 324 333 330 331 329 329 326 326 326 323 323 322 320 320
309 310 311 311 311 312 312 312 311 310 310 311 310 317 319 321 321 321 319 320 321 320 319 319 320 314 312 311 313 314 316 320 329 330 328 328 328 326 324 324 322 321 319 318 318
309 310 311 310 311 312 312 312 323 322 315 321 322 319 323 320 322 320 319 320 321 319 316 319 316 315 314 312 314 315 317 316 320 327 325 328 328 326 324 322 320 319 318 317 317
309 310 310 310 311 311 312 313 322 326 324 324 322 322 322 323 321 319 318 318 320 318 317 316 316 316 316 314 315 315 316 316 322 322 324 327 329 324 323 321 319 318 317 316 315
309 310 311 310 312 314 318 322 322 322 321 322 323 322 321 324 324 322 318 319 320 320 320 316 319 320 317 316 317 316 316 317 323 325 324 326 326 325 322 321 319 318 317 316 315
309 309 311 311 315 321 325 324 323 323 318 321 322 321 321 323 325 322 319 320 319 319 319 319 321 322 321 320 319 318 319 319 324 324 327 323 327 322 321 320 318 316 315 314 314
309 309 310 311 325 324 321 321 322 322 326 328 322 323 324 325 323 322 321 320 319 320 319 320 319 319 319 321 320 320 320 319 324 322 322 325 321 320 321 318 316 313 314 314 313
309 309 310 311 316 321 322 322 322 323 330 327 323 324 324 325 324 323 322 321 320 319 319 319 321 319 319 321 320 320 319 318 320 320 323 324 324 319 322 322 315 313 313 313 313
310 310 310 311 317 321 321 322 321 324 326 326 325 324 323 323 323 322 321 319 319 318 317 319 319 319 320 319 319 319 316 316 318 317 323 320 323 321 320 320 316 312 311 312 311
310 310 311 312 315 318 321 319 324 325 324 324 323 325 325 328 327 328 324 319 318 318 317 318 319 319 321 319 320 318 315 317 319 321 321 321 324 321 316 318 314 312 312 311 311
313 317 315 312 318 318 321 320 322 325 323 323 322 323 322 326 327 328 328 327 325 322 321 325 325 324 323 322 321 322 319 316 318 320 319 320 320 315 313 312 311 310 310 310 310
321 322 318 316 316 320 317 319 321 323 322 321 320 320 320 320 323 328 329 327 328 324 321 325 327 326 326 325 324 323 320 322 319 322 325 325 322 318 313 312 311 309 309 309 310
322 326 319 319 319 322 317 318 321 323 322 320 322 322 323 323 323 323 329 327 327 327 324 324 323 325 324 324 324 326 327 324 319 320 323 329 329 317 312 311 310 309 309 310 309
325 323 319 320 318 318 318 322 324 323 322 322 322 322 323 322 322 323 328 327 325 323 326 325 325 328 326 323 327 328 328 325 326 328 325 328 324 313 310 310 310 310 309 309 309
324 324 319 319 318 320 322 323 321 322 320 321 322 321 320 321 321 324 323 321 321 320 321 323 324 326 326 325 327 330 329 328 327 325 326 330 327 314 312 311 311 310 310 309 309
326 320 321 321 321 321 321 319 319 319 318 318 319 317 317 318 318 320 321 321 319 318 318 320 321 323 324 326 326 328 327 327 324 325 327 328 321 312 311 310 308 308 308 308 308
321 320 320 317 316 314 314 314 315 315 315 315 314 315 314 316 316 316 317 318 319 318 317 317 320 322 321 321 322 320 317 322 324 325 327 324 319 313 311 310 309 308 308 308 307
318 318 317 314 314 312 311 312 315 314 314 314 314 314 313 314 314 313 313 313 315 315 314 316 315 317 320 320 318 315 315 315 314 315 322 321 320 312 310 309 308 309 309 308 307
316 317 316 312 312 311 312 314 314 314 316 316 315 312 313 314 313 313 314 313 312 313 311 313 314 316 319 319 319 314 315 313 312 311 316 323 317 310 309 309 309 308 308 307 306
Wind_Speed
10 11 11 12 11 12 12 12 12 12 12 12 12 12 14 15 16 20 24 17 10 10 10 10 9 4 4 4 8 5 2 3 1 10 8 22 7 7 6 17 9 9 23 25 27
11 11 11 12 11 11 11 11 12 12 11 11 11 11 12 14 17 22 13 13 13 11 7 4 6 5 0 4 3 4 4 4 4 25 16 18 17 18 11 13 13 14 19 28 30
12 12 11 12 12 11 11 11 12 11 11 10 10 10 11 12 17 3 4 3 13 13 8 7 8 6 3 4 5 3 5 11 16 27 32 21 10 9 22 5 6 20 22 26 28
12 11 11 11 11 10 11 11 11 11 10 10 9 9 10 9 4 1 4 5 7 10 10 8 5 3 2 2 7 0 9 16 23 22 20 14 14 20 18 14 22 22 23 28 30
11 11 10 10 10 10 11 10 10 9 9 9 9 9 9 7 16 6 4 3 8 11 11 10 8 5 3 2 1 5 8 29 28 19 27 29 17 21 22 22 22 22 22 21 24
10 10 9 9 9 9 10 10 9 9 8 8 8 9 9 6 2 5 2 5 4 7 12 15 7 1 7 2 3 4 24 30 28 26 26 27 16 8 14 19 18 18 17 15 14
10 10 8 9 9 8 8 9 8 7 7 7 8 9 14 19 1 5 6 4 6 8 12 18 13 9 2 8 8 14 18 11 22 19 12 30 5 8 23 19 18 15 13 10 8
9 8 8 8 8 8 8 7 6 5 6 6 8 10 11 2 6 12 9 6 6 6 8 7 9 17 16 11 6 7 8 8 11 21 19 4 5 11 22 19 19 13 11 9 8
9 8 7 7 7 7 7 5 4 5 6 6 7 7 13 8 15 16 13 10 9 8 6 7 14 10 6 3 5 4 7 5 10 15 9 3 7 18 25 22 22 18 12 9 8
9 7 6 6 6 6 5 4 4 6 7 7 9 8 11 3 10 11 15 15 15 13 14 10 4 2 4 4 5 4 2 4 11 15 5 8 7 19 26 26 23 20 16 11 8
10 7 6 5 5 4 4 3 5 3 9 13 16 16 30 19 9 11 16 16 16 9 5 7 2 6 10 7 8 5 3 6 9 10 6 7 12 21 26 23 23 23 21 16 8
10 7 6 5 4 3 3 4 8 6 13 23 25 28 29 24 10 14 16 10 7 5 3 4 6 12 9 7 8 7 7 7 7 9 6 11 13 9 22 23 29 29 27 23 19
10 7 5 3 3 2 3 1 12 18 7 18 20 27 25 9 13 21 21 20 6 4 5 8 11 14 8 9 9 12 6 6 7 8 8 14 3 9 7 18 27 30 29 25 24
10 6 4 1 1 1 6 15 13 12 4 7 5 6 16 14 9 18 25 20 5 9 7 7 16 13 9 11 8 10 12 14 10 6 7 6 6 7 8 10 18 26 33 31 26
9 6 4 5 3 2 15 13 10 2 4 3 4 3 6 13 3 6 23 22 10 10 6 12 10 9 8 13 13 12 18 9 11 7 6 5 4 6 13 7 13 21 32 32 28
8 5 5 6 7 6 12 8 9 5 5 4 3 5 4 15 14 12 14 22 25 6 6 11 20 6 8 12 8 9 6 3 3 5 4 10 10 5 15 26 14 24 34 36 31
6 4 5 6 3 6 9 6 5 2 8 8 7 9 4 4 6 6 6 5 10 6 8 11 11 8 7 6 11 5 5 3 5 1 6 11 7 5 13 11 24 27 32 36 28
4 2 3 4 3 7 8 5 1 4 7 6 11 13 5 8 4 7 6 4 3 4 0 4 9 4 6 7 14 10 10 7 8 7 9 4 6 3 14 19 30 32 38 33 31
5 6 7 2 8 5 5 4 4 4 4 6 8 4 7 10 5 6 5 5 4 5 4 5 6 8 8 15 5 6 3 9 6 2 2 4 3 9 10 19 33 34 33 33 31
4 6 8 6 6 3 5 4 4 4 3 5 4 4 6 8 8 6 2 2 5 2 3 1 4 4 15 7 6 4 2 0 3 6 6 2 3 7 13 17 18 19 29 35 31
4 3 4 4 3 1 2 5 6 13 9 3 3 3 3 4 5 5 3 5 1 3 7 4 5 10 7 5 11 6 4 5 3 4 3 2 5 4 14 18 18 25 30 34 30
3 4 3 4 4 2 1 3 14 12 19 9 7 5 3 4 4 3 5 4 5 2 3 3 4 3 17 5 9 6 2 4 4 4 2 3 3 4 8 11 17 18 23 27 26
3 3 4 0 2 4 7 11 14 13 12 9 9 8 6 6 4 5 7 15 16 6 3 2 1 1 6 4 5 6 1 4 3 2 2 3 3 2 17 16 18 22 19 21 22
4 3 4 7 12 2 4 8 11 21 14 16 6 7 6 7 4 5 7 9 13 9 9 7 2 4 5 2 3 1 2 3 6 4 5 3 7 7 16 19 19 25 28 28 25
7 3 6 5 9 14 10 7 12 10 14 19 7 5 2 5 7 7 5 7 12 12 10 4 1 2 3 3 3 7 9 5 8 5 7 11 14 18 21 23 30 35 33 30 29
6 6 12 14 9 18 8 6 10 13 8 12 9 6 8 4 1 5 4 2 6 7 7 4 5 7 7 5 3 5 19 11 7 4 5 19 6 10 19 26 25 23 27 25 22
16 13 7 18 13 6 5 7 11 15 13 13 11 7 8 8 23 23 23 19 11 4 2 3 4 2 4 3 6 6 13 14 3 11 2 8 6 17 18 22 24 25 27 26 21
Wind_Direction
315 312 310 306 309 303 301 300 299 300 299 295 290 285 288 288 286 281 269 266 258 240 237 254 262 250 248 239 226 209 63 305 178 113 134 154 155 169 96 119 96 81 121 148 142
311 309 308 309 307 306 304 302 297 298 297 293 292 290 289 289 289 278 304 260 246 201 217 247 228 299 282 237 194 126 111 341 67 126 151 164 158 152 143 144 143 100 101 138 149
309 306 308 307 308 309 304 299 294 295 296 295 291 292 294 303 307 281 12 332 214 211 226 251 262 292 264 238 212 166 149 124 119 141 140 142 107 128 139 117 94 122 120 132 152
310 310 304 305 307 309 301 292 293 295 296 296 298 301 296 299 282 73 342 319 188 199 222 239 231 218 245 192 223 180 126 133 159 163 135 119 111 74 87 95 129 132 130 132 132
314 309 303 304 305 306 298 292 293 294 296 293 295 292 290 277 261 276 324 337 189 202 216 219 216 204 229 209 99 180 83 137 150 148 115 117 91 107 92 108 132 132 131 122 124
315 310 306 306 304 301 295 295 295 293 288 287 289 284 281 270 246 209 302 286 206 210 213 209 208 162 289 279 128 251 126 138 146 142 129 113 123 98 118 131 120 128 122 122 125
320 313 311 308 303 299 296 297 296 295 293 293 288 283 273 253 130 178 230 324 262 222 214 212 229 264 344 329 348 103 112 121 147 134 122 109 35 140 150 155 123 125 124 120 112
324 320 316 305 304 303 301 298 292 287 281 284 291 290 265 276 242 220 232 242 278 200 213 220 255 269 262 265 330 102 111 137 222 157 166 123 194 167 160 159 135 139 142 154 144
330 322 314 304 307 306 302 297 292 286 281 282 281 285 268 224 225 203 208 231 236 225 247 288 277 258 262 57 0 34 163 172 191 228 152 99 138 184 173 170 154 160 161 155 139
332 319 311 305 306 307 296 301 298 286 271 273 255 297 256 293 258 222 206 228 231 234 245 247 271 28 13 81 234 246 172 153 168 210 167 138 186 166 172 166 164 161 152 146 134
332 321 311 304 308 303 293 293 320 272 243 255 275 257 280 290 320 215 200 225 238 230 172 249 89 242 245 204 226 248 242 256 225 192 102 165 158 174 172 163 158 159 156 149 139
332 323 313 309 315 311 300 267 322 302 290 277 262 257 267 271 300 223 190 220 218 207 198 14 221 233 233 245 235 248 255 260 276 188 106 160 162 155 171 170 164 157 157 154 148
329 321 310 311 335 297 270 26 332 325 301 297 251 238 250 240 238 255 188 214 207 203 207 195 238 229 216 250 252 254 223 229 200 88 51 110 28 186 187 163 164 169 171 165 158
325 313 290 285 184 337 27 354 343 309 13 278 207 244 220 239 280 240 203 202 202 218 246 219 251 241 235 240 211 251 244 239 157 132 176 193 209 216 192 178 170 162 162 157 152
320 303 266 212 194 289 334 332 352 183 5 269 172 235 193 179 197 233 214 200 197 222 133 250 264 258 233 231 236 240 249 194 173 158 115 209 99 261 172 197 183 159 155 157 154
318 297 257 235 241 342 351 335 339 45 273 330 102 189 139 210 248 245 199 216 225 211 229 234 255 206 232 267 236 241 238 125 79 134 178 211 184 228 181 203 152 152 157 157 154
326 290 249 237 143 353 328 320 43 124 303 358 346 354 248 285 239 212 221 174 197 190 246 261 260 278 271 286 290 191 82 265 282 128 218 196 207 215 205 165 169 158 154 154 151
3 342 291 260 195 350 357 52 69 281 342 352 351 346 73 17 38 2 8 281 251 352 155 238 284 196 281 212 253 249 176 195 215 238 251 118 210 278 275 186 149 143 148 151 152
52 44 42 128 167 25 14 54 222 296 21 351 342 341 350 14 335 32 15 17 63 22 124 24 293 321 280 276 183 268 187 196 183 235 102 137 155 28 69 120 137 143 147 144 140
45 46 74 87 138 116 72 237 262 284 270 41 36 42 339 337 6 11 13 187 141 93 118 343 321 323 321 286 1 320 334 170 55 188 233 18 261 173 152 144 139 137 136 142 145
61 19 100 114 103 61 133 238 291 319 1 47 25 6 358 357 333 322 302 309 322 141 128 144 108 304 349 36 321 351 25 347 86 37 123 111 294 235 171 155 141 139 142 150 155
31 41 108 180 23 13 297 260 351 24 29 9 37 12 43 311 301 320 322 250 2 34 302 259 143 204 271 310 73 84 33 61 91 348 356 88 296 74 109 111 125 135 141 147 152
42 60 105 251 50 328 320 8 52 32 29 7 10 27 351 15 345 25 356 6 20 46 42 9 299 55 303 256 89 27 337 149 91 67 59 123 241 178 129 121 132 133 138 146 150
47 36 43 45 40 61 39 8 3 21 21 12 14 36 20 360 8 344 359 352 25 25 8 26 126 154 202 20 193 270 275 178 121 129 168 206 161 166 141 137 138 134 137 142 143
42 42 22 344 15 55 69 359 18 10 351 12 351 10 62 24 354 353 360 332 339 16 14 78 278 330 262 299 336 30 5 246 197 197 170 184 177 182 172 159 153 144 142 141 138
65 18 62 22 6 53 16 345 17 355 2 347 346 304 72 78 270 292 317 314 264 329 8 345 306 343 307 315 347 71 13 360 16 14 256 168 178 161 140 135 135 137 141 144 149
46 36 94 12 22 43 20 35 21 16 2 31 13 3 28 341 316 302 292 279 251 323 258 225 181 90 279 266 304 23 356 9 330 6 264 168 189 144 142 142 149 146 145 149 155